Location: State Line Observation Field
(36.5320°N, 77.5360°W)
Time: 07:54:44
(UTC-05:00)

Hubble Space Telescope - Visible Passes

Search period start: 08 March 2021 00:00
Search period end: 18 March 2021 01:00
Orbit: 535 x 539 km, 28.5° (Epoch: 08 March)

Date Brightness Start Highest point End Pass type
(mag) Time Alt. Az. Time Alt. Az. Time Alt. Az.
08 Mar 2.1 19:36:37 10° WSW 19:40:04 26° S 19:40:53 24° SSE visible
09 Mar 2.2 19:25:41 10° WSW 19:29:09 26° S 19:30:42 20° SSE visible
10 Mar 2.3 19:14:47 10° WSW 19:18:12 25° S 19:20:31 16° SE visible
11 Mar 2.4 19:03:55 10° WSW 19:07:15 24° S 19:10:21 11° SE visible
12 Mar 2.6 18:53:04 10° WSW 18:56:18 22° S 18:59:32 10° SE visible
13 Mar 2.8 18:42:17 10° WSW 18:45:21 20° SSW 18:48:24 10° SE visible
